Location: Dompnac
(44.5644°N, 4.1026°E)
Time: 13:12:44
(UTC+00:00)

Cosmos 2026 Rocket - Pass Details

Date: 21 January 2021
Orbit: 940 x 1000 km, 82.9° (Epoch: 28 February)

Event Time Altitude Azimuth Distance (km) Brightness Sun altitude
Rises 18:09:46 0° 165° (SSE) 3,599 6.9 -16.3°
Reaches altitude 10° 18:12:20 10° 159° (SSE) 2,664 6.2 -16.7°
Maximum altitude 18:18:02 44° 89° (E) 1,308 4.2 -17.7°
Drops below altitude 10° 18:23:51 10° 20° (NNE) 2,716 6.0 -18.7°
Sets 18:26:29 0° 14° (NNE) 3,677 6.8 -19.2°
